| time (UTC) | temp C | wind direction | speed KPH | gust KPH | rain 1hr cm | rain 24hr cm | rain mn cm | humidity % | barometer mb |
| 20260508113649 | 10 | 123 | 3.2 | 6.4 | 0.00 | 0.00 | 0.00 | 81 | 1016.0 |
| 20260508113149 | 10 | 67 | 3.2 | 4.8 | 0.00 | 0.00 | 0.00 | 82 | 1016.0 |
| 20260508112650 | 10 | 95 | 1.6 | 6.4 | 0.00 | 0.00 | 0.00 | 81 | 1016.1 |
| 20260508112150 | 10 | 102 | 1.6 | 6.4 | 0.00 | 0.00 | 0.00 | 81 | 1016.0 |
| 20260508111649 | 10 | 102 | 3.2 | 6.4 | 0.00 | 0.00 | 0.00 | 81 | 1015.9 |
| 20260508111151 | 10 | 109 | 1.6 | 8.0 | 0.00 | 0.00 | 0.00 | 81 | 1015.7 |
| 20260508110649 | 10 | 124 | 3.2 | 8.0 | 0.00 | 0.00 | 0.00 | 81 | 1015.6 |
| 20260508110150 | 10 | 102 | 4.8 | 8.0 | 0.00 | 0.00 | 0.00 | 81 | 1015.7 |
| 20260508105650 | 10 | 120 | 3.2 | 8.0 | 0.00 | 0.00 | 0.00 | 81 | 1015.6 |
| 20260508105150 | 10 | 100 | 4.8 | 6.4 | 0.00 | 0.00 | 0.00 | 81 | 1015.7 |
| 20260508104649 | 10 | 77 | 3.2 | 6.4 | 0.00 | 0.00 | 0.00 | 81 | 1015.8 |
| 20260508104151 | 10 | 98 | 3.2 | 6.4 | 0.00 | 0.00 | 0.00 | 81 | 1015.8 |
| 20260508103649 | 10 | 92 | 1.6 | 6.4 | 0.00 | 0.00 | 0.00 | 82 | 1015.8 |
| 20260508102650 | 10 | 95 | 1.6 | 9.7 | 0.00 | 0.00 | 0.00 | 82 | 1015.7 |
| 20260508102150 | 10 | 89 | 4.8 | 9.7 | 0.00 | 0.00 | 0.00 | 82 | 1015.6 |
| 20260508101649 | 10 | 89 | 4.8 | 8.0 | 0.00 | 0.00 | 0.00 | 82 | 1015.6 |
| 20260508101246 | 10 | 127 | 3.2 | 6.4 | 0.00 | 0.00 | 0.00 | 82 | 1015.6 |
| 20260508101151 | 10 | 127 | 3.2 | 6.4 | 0.00 | 0.00 | 0.00 | 82 | 1015.6 |
| 20260508100649 | 10 | 96 | 4.8 | 9.7 | 0.00 | 0.00 | 0.00 | 81 | 1015.5 |
| 20260508100149 | 10 | 120 | 1.6 | 9.7 | 0.00 | 0.00 | 0.00 | 81 | 1015.4 |
| 20260508095650 | 10 | 105 | 4.8 | 9.7 | 0.00 | 0.00 | 0.00 | 81 | 1015.3 |
| 20260508095149 | 10 | 99 | 4.8 | 9.7 | 0.00 | 0.00 | 0.00 | 81 | 1015.3 |
| 20260508094649 | 10 | 95 | 4.8 | 9.7 | 0.00 | 0.00 | 0.00 | 82 | 1015.4 |
| 20260508094151 | 10 | 92 | 3.2 | 8.0 | 0.00 | 0.00 | 0.00 | 82 | 1015.4 |
| 20260508093649 | 10 | 107 | 4.8 | 9.7 | 0.00 | 0.00 | 0.00 | 82 | 1015.3 |
| 20260508093149 | 10 | 89 | 8.0 | 9.7 | 0.00 | 0.00 | 0.00 | 82 | 1015.3 |
| 20260508092650 | 10 | 120 | 4.8 | 9.7 | 0.00 | 0.00 | 0.00 | 82 | 1015.3 |
| 20260508092149 | 9 | 113 | 8.0 | 8.0 | 0.00 | 0.00 | 0.00 | 82 | 1015.2 |
| 20260508091649 | 9 | 100 | 3.2 | 8.0 | 0.00 | 0.00 | 0.00 | 82 | 1015.2 |
| 20260508091151 | 9 | 99 | 3.2 | 8.0 | 0.00 | 0.00 | 0.00 | 82 | 1015.3 |
| 20260508090150 | 9 | 102 | 6.4 | 9.7 | 0.00 | 0.00 | 0.00 | 82 | 1015.0 |
| 20260508085650 | 9 | 109 | 6.4 | 9.7 | 0.00 | 0.00 | 0.00 | 82 | 1015.0 |
| 20260508085149 | 9 | 106 | 3.2 | 9.7 | 0.00 | 0.00 | 0.00 | 82 | 1015.0 |
| 20260508084649 | 9 | 95 | 6.4 | 9.7 | 0.00 | 0.00 | 0.00 | 82 | 1015.0 |
| 20260508084151 | 9 | 114 | 4.8 | 9.7 | 0.00 | 0.00 | 0.00 | 81 | 1015.0 |
| 20260508083649 | 9 | 91 | 4.8 | 9.7 | 0.00 | 0.00 | 0.00 | 81 | 1014.8 |
| 20260508083149 | 9 | 98 | 4.8 | 9.7 | 0.00 | 0.00 | 0.00 | 81 | 1014.8 |
| 20260508082650 | 9 | 91 | 6.4 | 9.7 | 0.00 | 0.00 | 0.00 | 81 | 1014.8 |
| 20260508082149 | 8 | 92 | 6.4 | 8.0 | 0.00 | 0.00 | 0.00 | 82 | 1014.7 |
| 20260508081649 | 8 | 107 | 4.8 | 8.0 | 0.00 | 0.00 | 0.00 | 81 | 1014.7 |
| 20260508081151 | 8 | 113 | 6.4 | 8.0 | 0.00 | 0.00 | 0.00 | 81 | 1014.6 |
| 20260508080649 | 8 | 102 | 6.4 | 8.0 | 0.00 | 0.00 | 0.00 | 81 | 1014.6 |
| 20260508080149 | 8 | 100 | 4.8 | 9.7 | 0.00 | 0.00 | 0.00 | 81 | 1014.5 |
| 20260508075650 | 8 | 91 | 4.8 | 9.7 | 0.00 | 0.00 | 0.00 | 81 | 1014.6 |
| 20260508075149 | 8 | 100 | 6.4 | 9.7 | 0.00 | 0.00 | 0.00 | 81 | 1014.7 |
| 20260508074649 | 8 | 91 | 4.8 | 8.0 | 0.00 | 0.00 | 0.00 | 81 | 1014.8 |
| 20260508074151 | 8 | 92 | 4.8 | 8.0 | 0.00 | 0.00 | 0.00 | 81 | 1014.8 |
| 20260508073649 | 8 | 121 | 4.8 | 8.0 | 0.00 | 0.00 | 0.00 | 81 | 1014.7 |
| 20260508073149 | 8 | 112 | 4.8 | 8.0 | 0.00 | 0.00 | 0.00 | 81 | 1014.6 |
| 20260508072650 | 8 | 100 | 4.8 | 8.0 | 0.00 | 0.00 | 0.00 | 81 | 1014.6 |
| 20260508072149 | 8 | 110 | 4.8 | 8.0 | 0.00 | 0.00 | 0.00 | 80 | 1014.6 |
| 20260508071649 | 8 | 119 | 4.8 | 8.0 | 0.00 | 0.00 | 0.00 | 80 | 1014.6 |
| 20260508071151 | 8 | 116 | 1.6 | 8.0 | 0.00 | 0.00 | 0.00 | 80 | 1014.6 |
| 20260508070649 | 8 | 107 | 4.8 | 8.0 | 0.00 | 0.00 | 0.00 | 80 | 1014.6 |
| 20260508070149 | 8 | 103 | 4.8 | 6.4 | 0.00 | 0.00 | 0.00 | 80 | 1014.5 |
| 20260508065650 | 8 | 91 | 3.2 | 6.4 | 0.00 | 0.00 | 0.00 | 80 | 1014.6 |
| 20260508065149 | 8 | 105 | 4.8 | 8.0 | 0.00 | 0.00 | 0.00 | 80 | 1014.6 |
| 20260508064649 | 8 | 105 | 4.8 | 8.0 | 0.00 | 0.00 | 0.00 | 80 | 1014.6 |
| 20260508064151 | 8 | 102 | 6.4 | 8.0 | 0.00 | 0.00 | 0.00 | 80 | 1014.5 |
| 20260508063650 | 8 | 123 | 6.4 | 8.0 | 0.00 | 0.00 | 0.00 | 80 | 1014.5 |
| 20260508063151 | 9 | 106 | 4.8 | 8.0 | 0.00 | 0.00 | 0.00 | 79 | 1014.5 |
| 20260508062650 | 8 | 105 | 4.8 | 8.0 | 0.00 | 0.00 | 0.00 | 79 | 1014.5 |
| 20260508062149 | 9 | 103 | 4.8 | 8.0 | 0.00 | 0.00 | 0.00 | 79 | 1014.5 |
| 20260508061649 | 9 | 98 | 4.8 | 6.4 | 0.00 | 0.00 | 0.00 | 79 | 1014.4 |
| 20260508061151 | 9 | 105 | 4.8 | 4.8 | 0.00 | 0.00 | 0.00 | 79 | 1014.4 |
| 20260508060649 | 9 | 110 | 4.8 | 6.4 | 0.00 | 0.00 | 0.00 | 79 | 1014.4 |
| 20260508060149 | 9 | 107 | 3.2 | 6.4 | 0.00 | 0.00 | 0.00 | 78 | 1014.4 |
| 20260508055650 | 9 | 99 | 3.2 | 6.4 | 0.00 | 0.00 | 0.00 | 78 | 1014.4 |
| 20260508055149 | 9 | 96 | 4.8 | 4.8 | 0.00 | 0.00 | 0.00 | 78 | 1014.3 |
| 20260508054649 | 10 | 119 | 4.8 | 4.8 | 0.00 | 0.00 | 0.00 | 78 | 1014.3 |
| 20260508054151 | 10 | 103 | 3.2 | 4.8 | 0.00 | 0.00 | 0.00 | 78 | 1014.3 |
| 20260508053649 | 10 | 89 | 3.2 | 3.2 | 0.00 | 0.00 | 0.00 | 77 | 1014.3 |
| 20260508053149 | 10 | 105 | 3.2 | 8.0 | 0.00 | 0.00 | 0.00 | 77 | 1014.3 |
| 20260508052650 | 10 | 120 | 3.2 | 8.0 | 0.00 | 0.00 | 0.00 | 77 | 1014.3 |
| 20260508052150 | 10 | 96 | 4.8 | 8.0 | 0.00 | 0.00 | 0.00 | 77 | 1014.3 |
| 20260508051650 | 10 | 106 | 4.8 | 8.0 | 0.00 | 0.00 | 0.00 | 77 | 1014.3 |
| 20260508051151 | 10 | 91 | 4.8 | 8.0 | 0.00 | 0.00 | 0.00 | 77 | 1014.3 |
| 20260508050649 | 10 | 310 | 1.6 | 8.0 | 0.00 | 0.00 | 0.00 | 77 | 1014.3 |
| 20260508050149 | 10 | 12 | 1.6 | 8.0 | 0.00 | 0.00 | 0.00 | 76 | 1014.4 |
| 20260508045650 | 10 | 112 | 1.6 | 4.8 | 0.00 | 0.00 | 0.00 | 76 | 1014.5 |
| 20260508045149 | 10 | 22 | 0.0 | 4.8 | 0.00 | 0.00 | 0.00 | 76 | 1014.5 |
| 20260508044649 | 10 | 337 | 1.6 | 4.8 | 0.00 | 0.00 | 0.00 | 76 | 1014.5 |
| 20260508044151 | 10 | 99 | 1.6 | 3.2 | 0.00 | 0.00 | 0.00 | 76 | 1014.5 |
| 20260508043649 | 11 | 95 | 0.0 | 3.2 | 0.00 | 0.00 | 0.00 | 75 | 1014.5 |
| 20260508043149 | 11 | 29 | 1.6 | 3.2 | 0.00 | 0.00 | 0.00 | 75 | 1014.4 |
| 20260508042650 | 11 | 93 | 1.6 | 3.2 | 0.00 | 0.00 | 0.00 | 75 | 1014.4 |
| 20260508042149 | 11 | 102 | 0.0 | 3.2 | 0.00 | 0.00 | 0.00 | 75 | 1014.3 |
| 20260508041649 | 11 | 99 | 1.6 | 8.0 | 0.00 | 0.00 | 0.00 | 75 | 1014.4 |
| 20260508041151 | 11 | 327 | 0.0 | 8.0 | 0.00 | 0.00 | 0.00 | 75 | 1014.3 |
| 20260508040650 | 11 | 343 | 3.2 | 8.0 | 0.00 | 0.00 | 0.00 | 75 | 1014.3 |
| 20260508040149 | 11 | 350 | 1.6 | 16.1 | 0.00 | 0.00 | 0.00 | 75 | 1014.2 |
| 20260508035652 | 11 | 12 | 4.8 | 16.1 | 0.00 | 0.00 | 0.00 | 74 | 1014.3 |
| 20260508035149 | 11 | 344 | 1.6 | 16.1 | 0.00 | 0.00 | 0.00 | 74 | 1014.3 |
| 20260508034649 | 11 | 331 | 4.8 | 14.5 | 0.00 | 0.00 | 0.00 | 74 | 1014.2 |
| 20260508034151 | 11 | 5 | 4.8 | 14.5 | 0.00 | 0.00 | 0.00 | 74 | 1014.1 |
| 20260508033649 | 12 | 313 | 6.4 | 14.5 | 0.00 | 0.00 | 0.00 | 74 | 1014.0 |
| 20260508033149 | 12 | 324 | 11.3 | 19.3 | 0.00 | 0.00 | 0.00 | 74 | 1014.1 |
| 20260508032151 | 12 | 317 | 9.7 | 19.3 | 0.00 | 0.00 | 0.00 | 73 | 1014.0 |
| 20260508031649 | 12 | 322 | 9.7 | 19.3 | 0.00 | 0.00 | 0.00 | 73 | 1014.0 |
| 20260508031151 | 12 | 327 | 12.9 | 19.3 | 0.00 | 0.00 | 0.00 | 73 | 1014.0 |
| 20260508030649 | 12 | 316 | 9.7 | 19.3 | 0.00 | 0.00 | 0.00 | 73 | 1013.9 |
| 20260508030148 | 12 | 315 | 9.7 | 19.3 | 0.00 | 0.00 | 0.00 | 73 | 1013.8 |
| 20260508025651 | 12 | 331 | 11.3 | 20.9 | 0.00 | 0.00 | 0.00 | 73 | 1013.8 |
| 20260508025149 | 12 | 341 | 8.0 | 20.9 | 0.00 | 0.00 | 0.00 | 72 | 1013.8 |
| 20260508024649 | 12 | 310 | 9.7 | 20.9 | 0.00 | 0.00 | 0.00 | 72 | 1013.8 |
| 20260508024151 | 12 | 319 | 11.3 | 27.4 | 0.00 | 0.00 | 0.00 | 72 | 1013.9 |
| 20260508023649 | 12 | 324 | 16.1 | 27.4 | 0.00 | 0.00 | 0.00 | 72 | 1013.9 |
| 20260508023149 | 13 | 351 | 14.5 | 27.4 | 0.00 | 0.00 | 0.00 | 71 | 1013.9 |
| 20260508022650 | 13 | 324 | 16.1 | 22.5 | 0.00 | 0.00 | 0.00 | 71 | 1013.9 |
| 20260508022149 | 13 | 285 | 14.5 | 27.4 | 0.00 | 0.00 | 0.00 | 71 | 1013.9 |
| 20260508021649 | 13 | 330 | 14.5 | 27.4 | 0.00 | 0.00 | 0.00 | 71 | 1013.9 |
| 20260508021151 | 13 | 326 | 16.1 | 27.4 | 0.00 | 0.00 | 0.00 | 71 | 1013.8 |
| 20260508020649 | 13 | 310 | 16.1 | 27.4 | 0.00 | 0.00 | 0.00 | 71 | 1013.9 |
| 20260508020148 | 13 | 315 | 14.5 | 30.6 | 0.00 | 0.00 | 0.00 | 71 | 1013.9 |
| 20260508015650 | 13 | 319 | 17.7 | 30.6 | 0.00 | 0.00 | 0.00 | 71 | 1013.9 |
| 20260508015149 | 13 | 323 | 14.5 | 30.6 | 0.00 | 0.00 | 0.00 | 71 | 1014.0 |
| 20260508014151 | 13 | 8 | 14.5 | 30.6 | 0.00 | 0.00 | 0.00 | 70 | 1014.1 |
| 20260508013649 | 13 | 320 | 12.9 | 30.6 | 0.00 | 0.00 | 0.00 | 70 | 1014.1 |
| 20260508013149 | 13 | 336 | 17.7 | 27.4 | 0.00 | 0.00 | 0.00 | 70 | 1014.3 |
| 20260508012648 | 13 | 317 | 20.9 | 27.4 | 0.00 | 0.00 | 0.00 | 70 | 1014.3 |
| 20260508012149 | 13 | 334 | 17.7 | 27.4 | 0.00 | 0.00 | 0.00 | 70 | 1014.3 |
| 20260508011649 | 13 | 309 | 12.9 | 29.0 | 0.00 | 0.00 | 0.00 | 70 | 1014.3 |
| 20260508011151 | 13 | 326 | 17.7 | 29.0 | 0.00 | 0.00 | 0.00 | 70 | 1014.3 |
| 20260508010649 | 14 | 320 | 19.3 | 29.0 | 0.00 | 0.00 | 0.00 | 69 | 1014.4 |
| 20260508010149 | 14 | 319 | 17.7 | 30.6 | 0.00 | 0.00 | 0.00 | 69 | 1014.3 |
| 20260508005650 | 14 | 338 | 16.1 | 30.6 | 0.00 | 0.00 | 0.00 | 69 | 1014.3 |
| 20260508005149 | 14 | 323 | 14.5 | 30.6 | 0.00 | 0.00 | 0.00 | 69 | 1014.2 |
| 20260508004649 | 14 | 329 | 17.7 | 29.0 | 0.00 | 0.00 | 0.00 | 69 | 1014.2 |
| 20260508004151 | 14 | 324 | 16.1 | 32.2 | 0.00 | 0.00 | 0.00 | 69 | 1014.3 |
| 20260508003649 | 14 | 341 | 17.7 | 32.2 | 0.00 | 0.00 | 0.00 | 69 | 1014.5 |
| 20260508003149 | 14 | 320 | 19.3 | 32.2 | 0.00 | 0.00 | 0.00 | 69 | 1014.6 |
| 20260508002648 | 14 | 322 | 19.3 | 32.2 | 0.00 | 0.00 | 0.00 | 69 | 1014.7 |
| 20260508002149 | 14 | 324 | 20.9 | 32.2 | 0.00 | 0.00 | 0.00 | 68 | 1014.7 |
| 20260508001649 | 15 | 330 | 19.3 | 32.2 | 0.00 | 0.00 | 0.00 | 69 | 1014.6 |
| 20260508001151 | 15 | 344 | 19.3 | 30.6 | 0.00 | 0.00 | 0.00 | 68 | 1014.6 |
| 20260508000649 | 15 | 322 | 20.9 | 30.6 | 0.00 | 0.00 | 0.00 | 68 | 1014.6 |
| 20260508000149 | 15 | 327 | 14.5 | 27.4 | 0.00 | 0.00 | 0.00 | 68 | 1014.6 |
| 20260507235650 | 15 | 327 | 19.3 | 27.4 | 0.00 | 0.00 | 0.00 | 68 | 1014.6 |
| 20260507235149 | 15 | 306 | 17.7 | 30.6 | 0.00 | 0.00 | 0.00 | 68 | 1014.6 |
| 20260507234649 | 15 | 324 | 17.7 | 30.6 | 0.00 | 0.00 | 0.00 | 67 | 1014.6 |
| 20260507234151 | 15 | 330 | 17.7 | 30.6 | 0.00 | 0.00 | 0.00 | 67 | 1014.5 |
| 20260507233649 | 15 | 334 | 20.9 | 30.6 | 0.00 | 0.00 | 0.00 | 67 | 1014.6 |
| 20260507233149 | 15 | 319 | 17.7 | 30.6 | 0.00 | 0.00 | 0.00 | 67 | 1014.6 |
| 20260507232650 | 15 | 330 | 16.1 | 27.4 | 0.00 | 0.00 | 0.00 | 67 | 1014.7 |
| 20260507232149 | 15 | 327 | 12.9 | 30.6 | 0.00 | 0.00 | 0.00 | 68 | 1014.7 |
| 20260507231649 | 15 | 331 | 20.9 | 30.6 | 0.00 | 0.00 | 0.00 | 67 | 1014.9 |
| 20260507231151 | 15 | 317 | 17.7 | 30.6 | 0.00 | 0.00 | 0.00 | 67 | 1014.9 |
| 20260507230649 | 15 | 317 | 20.9 | 32.2 | 0.00 | 0.00 | 0.00 | 66 | 1014.9 |
| 20260507230149 | 15 | 317 | 17.7 | 32.2 | 0.00 | 0.00 | 0.00 | 67 | 1015.0 |
| 20260507225651 | 15 | 324 | 17.7 | 32.2 | 0.00 | 0.00 | 0.00 | 67 | 1015.1 |
| 20260507225149 | 15 | 334 | 22.5 | 30.6 | 0.00 | 0.00 | 0.00 | 67 | 1015.2 |
| 20260507224151 | 15 | 333 | 19.3 | 30.6 | 0.00 | 0.00 | 0.00 | 67 | 1015.3 |
| 20260507223649 | 15 | 327 | 19.3 | 29.0 | 0.00 | 0.00 | 0.00 | 66 | 1015.4 |
| 20260507223149 | 15 | 330 | 17.7 | 29.0 | 0.00 | 0.00 | 0.00 | 66 | 1015.4 |
| 20260507222650 | 15 | 326 | 17.7 | 29.0 | 0.00 | 0.00 | 0.00 | 66 | 1015.5 |
| 20260507222149 | 16 | 337 | 17.7 | 29.0 | 0.00 | 0.00 | 0.00 | 66 | 1015.6 |
| 20260507221649 | 16 | 324 | 17.7 | 29.0 | 0.00 | 0.00 | 0.00 | 66 | 1015.7 |
| 20260507221151 | 16 | 326 | 16.1 | 29.0 | 0.00 | 0.00 | 0.00 | 66 | 1015.7 |
| 20260507220650 | 16 | 324 | 16.1 | 29.0 | 0.00 | 0.00 | 0.00 | 66 | 1015.7 |
| 20260507220149 | 16 | 343 | 16.1 | 29.0 | 0.00 | 0.00 | 0.00 | 66 | 1015.7 |
| 20260507215650 | 16 | 336 | 19.3 | 25.7 | 0.00 | 0.00 | 0.00 | 65 | 1015.8 |
| 20260507215149 | 16 | 326 | 17.7 | 29.0 | 0.00 | 0.00 | 0.00 | 65 | 1015.8 |
| 20260507214649 | 16 | 343 | 11.3 | 29.0 | 0.00 | 0.00 | 0.00 | 67 | 1016.0 |
| 20260507214151 | 16 | 326 | 12.9 | 29.0 | 0.00 | 0.00 | 0.00 | 67 | 1016.0 |
| 20260507213649 | 16 | 337 | 20.9 | 27.4 | 0.00 | 0.00 | 0.00 | 65 | 1016.0 |
| 20260507213149 | 16 | 329 | 14.5 | 25.7 | 0.00 | 0.00 | 0.00 | 66 | 1016.0 |
| 20260507212650 | 16 | 331 | 14.5 | 29.0 | 0.00 | 0.00 | 0.00 | 66 | 1015.9 |
| 20260507212149 | 16 | 324 | 20.9 | 29.0 | 0.00 | 0.00 | 0.00 | 65 | 1015.8 |
| 20260507211649 | 16 | 333 | 17.7 | 29.0 | 0.00 | 0.00 | 0.00 | 66 | 1015.9 |
| 20260507211151 | 16 | 337 | 17.7 | 27.4 | 0.00 | 0.00 | 0.00 | 66 | 1015.9 |
| 20260507210649 | 16 | 324 | 20.9 | 27.4 | 0.00 | 0.00 | 0.00 | 66 | 1015.8 |
| 20260507210149 | 16 | 327 | 12.9 | 27.4 | 0.00 | 0.00 | 0.00 | 67 | 1015.8 |
| 20260507205650 | 16 | 350 | 17.7 | 25.7 | 0.00 | 0.00 | 0.00 | 65 | 1015.7 |
| 20260507205149 | 16 | 330 | 17.7 | 25.7 | 0.00 | 0.00 | 0.00 | 65 | 1015.6 |
| 20260507204650 | 16 | 327 | 17.7 | 25.7 | 0.00 | 0.00 | 0.00 | 65 | 1015.6 |
| 20260507204151 | 16 | 337 | 17.7 | 25.7 | 0.00 | 0.00 | 0.00 | 65 | 1015.6 |
| 20260507203649 | 16 | 333 | 16.1 | 25.7 | 0.00 | 0.00 | 0.00 | 66 | 1015.7 |
| 20260507203149 | 17 | 324 | 17.7 | 25.7 | 0.00 | 0.00 | 0.00 | 65 | 1015.7 |
| 20260507202650 | 17 | 302 | 19.3 | 25.7 | 0.00 | 0.00 | 0.00 | 64 | 1015.8 |
| 20260507202149 | 17 | 322 | 12.9 | 25.7 | 0.00 | 0.00 | 0.00 | 66 | 1015.9 |
| 20260507201152 | 17 | 333 | 14.5 | 25.7 | 0.00 | 0.00 | 0.00 | 66 | 1015.9 |
| 20260507200649 | 17 | 326 | 17.7 | 24.1 | 0.00 | 0.00 | 0.00 | 64 | 1015.9 |
| 20260507200149 | 16 | 336 | 14.5 | 24.1 | 0.00 | 0.00 | 0.00 | 66 | 1015.9 |
| 20260507195650 | 16 | 2 | 14.5 | 24.1 | 0.00 | 0.00 | 0.00 | 66 | 1015.9 |
| 20260507195150 | 16 | 320 | 17.7 | 25.7 | 0.00 | 0.00 | 0.00 | 65 | 1016.0 |
| 20260507194649 | 17 | 351 | 17.7 | 25.7 | 0.00 | 0.00 | 0.00 | 65 | 1016.0 |
| 20260507194151 | 17 | 323 | 19.3 | 25.7 | 0.00 | 0.00 | 0.00 | 65 | 1016.0 |
| 20260507193649 | 17 | 323 | 16.1 | 24.1 | 0.00 | 0.00 | 0.00 | 65 | 1016.1 |
| 20260507193151 | 17 | 289 | 16.1 | 22.5 | 0.00 | 0.00 | 0.00 | 65 | 1016.1 |
| 20260507192650 | 17 | 316 | 14.5 | 22.5 | 0.00 | 0.00 | 0.00 | 66 | 1016.1 |
| 20260507192149 | 17 | 326 | 14.5 | 22.5 | 0.00 | 0.00 | 0.00 | 66 | 1016.2 |
| 20260507191649 | 17 | 334 | 14.5 | 22.5 | 0.00 | 0.00 | 0.00 | 66 | 1016.2 |
| 20260507191151 | 17 | 326 | 12.9 | 25.7 | 0.00 | 0.00 | 0.00 | 67 | 1016.2 |
| 20260507190649 | 16 | 312 | 12.9 | 25.7 | 0.00 | 0.00 | 0.00 | 67 | 1016.2 |
| 20260507190149 | 16 | 334 | 17.7 | 25.7 | 0.00 | 0.00 | 0.00 | 66 | 1016.2 |
| 20260507185650 | 16 | 323 | 12.9 | 24.1 | 0.00 | 0.00 | 0.00 | 66 | 1016.3 |
| 20260507185149 | 16 | 322 | 11.3 | 22.5 | 0.00 | 0.00 | 0.00 | 67 | 1016.3 |
| 20260507184649 | 16 | 326 | 12.9 | 24.1 | 0.00 | 0.00 | 0.00 | 67 | 1016.3 |
| 20260507184151 | 16 | 327 | 14.5 | 24.1 | 0.00 | 0.00 | 0.00 | 68 | 1016.3 |
| 20260507183649 | 16 | 341 | 16.1 | 24.1 | 0.00 | 0.00 | 0.00 | 68 | 1016.3 |
| 20260507183149 | 16 | 333 | 17.7 | 25.7 | 0.00 | 0.00 | 0.00 | 68 | 1016.3 |
| 20260507182650 | 16 | 315 | 16.1 | 25.7 | 0.00 | 0.00 | 0.00 | 67 | 1016.4 |
| 20260507182149 | 16 | 326 | 19.3 | 25.7 | 0.00 | 0.00 | 0.00 | 67 | 1016.4 |
| 20260507181649 | 16 | 322 | 17.7 | 24.1 | 0.00 | 0.00 | 0.00 | 67 | 1016.4 |
| 20260507181151 | 16 | 327 | 14.5 | 27.4 | 0.00 | 0.00 | 0.00 | 68 | 1016.5 |
| 20260507180649 | 16 | 329 | 17.7 | 27.4 | 0.00 | 0.00 | 0.00 | 68 | 1016.5 |
| 20260507180149 | 16 | 324 | 17.7 | 27.4 | 0.00 | 0.00 | 0.00 | 67 | 1016.5 |
| 20260507175650 | 16 | 322 | 14.5 | 25.7 | 0.00 | 0.00 | 0.00 | 68 | 1016.6 |
| 20260507175149 | 16 | 320 | 16.1 | 25.7 | 0.00 | 0.00 | 0.00 | 68 | 1016.7 |
| 20260507174649 | 15 | 298 | 12.9 | 25.7 | 0.00 | 0.00 | 0.00 | 70 | 1016.6 |
| 20260507174151 | 15 | 341 | 16.1 | 25.7 | 0.00 | 0.00 | 0.00 | 69 | 1016.6 |
| 20260507173650 | 15 | 312 | 14.5 | 25.7 | 0.00 | 0.00 | 0.00 | 70 | 1016.6 |
| 20260507173149 | 14 | 341 | 12.9 | 25.7 | 0.00 | 0.00 | 0.00 | 72 | 1016.6 |
| 20260507172650 | 14 | 324 | 16.1 | 24.1 | 0.00 | 0.00 | 0.00 | 71 | 1016.7 |
| 20260507172149 | 14 | 320 | 14.5 | 24.1 | 0.00 | 0.00 | 0.00 | 71 | 1016.8 |
| 20260507171649 | 14 | 323 | 16.1 | 22.5 | 0.00 | 0.00 | 0.00 | 71 | 1016.8 |
| 20260507171151 | 14 | 340 | 14.5 | 22.5 | 0.00 | 0.00 | 0.00 | 72 | 1016.8 |
| 20260507170649 | 14 | 345 | 14.5 | 22.5 | 0.00 | 0.00 | 0.00 | 72 | 1016.8 |
| 20260507165650 | 13 | 347 | 14.5 | 22.5 | 0.00 | 0.00 | 0.00 | 72 | 1016.8 |
| 20260507165149 | 14 | 319 | 14.5 | 20.9 | 0.00 | 0.00 | 0.00 | 72 | 1016.8 |
| 20260507164649 | 13 | 341 | 12.9 | 20.9 | 0.00 | 0.00 | 0.00 | 72 | 1016.8 |
| 20260507164150 | 14 | 333 | 14.5 | 17.7 | 0.00 | 0.00 | 0.00 | 73 | 1016.9 |
| 20260507163649 | 13 | 324 | 12.9 | 17.7 | 0.00 | 0.00 | 0.00 | 73 | 1016.8 |
| 20260507163148 | 13 | 326 | 11.3 | 16.1 | 0.00 | 0.00 | 0.00 | 73 | 1016.9 |
| 20260507162649 | 13 | 344 | 9.7 | 16.1 | 0.00 | 0.00 | 0.00 | 73 | 1016.9 |
| 20260507162149 | 13 | 323 | 8.0 | 16.1 | 0.00 | 0.00 | 0.00 | 74 | 1016.9 |
| 20260507161649 | 13 | 341 | 11.3 | 14.5 | 0.00 | 0.00 | 0.00 | 75 | 1016.9 |
| 20260507161150 | 13 | 313 | 9.7 | 16.1 | 0.00 | 0.00 | 0.00 | 75 | 1016.9 |
| 20260507160648 | 12 | 309 | 6.4 | 16.1 | 0.00 | 0.00 | 0.00 | 76 | 1016.9 |
| 20260507160149 | 12 | 320 | 9.7 | 16.1 | 0.00 | 0.00 | 0.00 | 76 | 1016.9 |
| 20260507155649 | 12 | 333 | 11.3 | 14.5 | 0.00 | 0.00 | 0.00 | 75 | 1016.9 |
| 20260507155149 | 12 | 331 | 8.0 | 14.5 | 0.00 | 0.00 | 0.00 | 76 | 1016.9 |
| 20260507154648 | 12 | 315 | 11.3 | 16.1 | 0.00 | 0.00 | 0.00 | 77 | 1016.9 |
| 20260507154149 | 12 | 329 | 6.4 | 16.1 | 0.00 | 0.00 | 0.00 | 77 | 1016.9 |
| 20260507153649 | 12 | 323 | 8.0 | 16.1 | 0.00 | 0.00 | 0.00 | 78 | 1017.0 |
| 20260507153148 | 12 | 320 | 8.0 | 14.5 | 0.00 | 0.00 | 0.00 | 78 | 1016.9 |
| 20260507152649 | 12 | 323 | 8.0 | 12.9 | 0.00 | 0.00 | 0.00 | 78 | 1017.0 |
| 20260507152149 | 12 | 331 | 8.0 | 12.9 | 0.00 | 0.00 | 0.00 | 78 | 1016.9 |
| 20260507151649 | 12 | 324 | 4.8 | 12.9 | 0.00 | 0.00 | 0.00 | 79 | 1016.9 |
| 20260507151151 | 12 | 323 | 6.4 | 12.9 | 0.00 | 0.00 | 0.00 | 79 | 1016.8 |
| 20260507150648 | 12 | 320 | 9.7 | 12.9 | 0.00 | 0.00 | 0.00 | 79 | 1016.8 |
| 20260507145649 | 12 | 333 | 6.4 | 12.9 | 0.00 | 0.00 | 0.00 | 80 | 1016.8 |
| 20260507145149 | 11 | 340 | 8.0 | 11.3 | 0.00 | 0.00 | 0.00 | 80 | 1016.9 |
| 20260507144649 | 11 | 330 | 6.4 | 9.7 | 0.00 | 0.00 | 0.00 | 81 | 1016.9 |
| 20260507144151 | 11 | 323 | 4.8 | 8.0 | 0.00 | 0.00 | 0.00 | 81 | 1016.9 |
| 20260507143649 | 11 | 319 | 0.0 | 8.0 | 0.00 | 0.00 | 0.00 | 81 | 1016.9 |
| 20260507143149 | 11 | 313 | 0.0 | 8.0 | 0.00 | 0.00 | 0.00 | 82 | 1016.9 |
| 20260507142650 | 11 | 7 | 3.2 | 9.7 | 0.00 | 0.00 | 0.00 | 82 | 1016.8 |
| 20260507142149 | 11 | 2 | 1.6 | 9.7 | 0.00 | 0.00 | 0.00 | 82 | 1016.8 |
| 20260507141648 | 11 | 334 | 3.2 | 9.7 | 0.00 | 0.00 | 0.00 | 82 | 1016.8 |
| 20260507141151 | 11 | 8 | 1.6 | 6.4 | 0.00 | 0.00 | 0.00 | 82 | 1016.8 |
| 20260507140649 | 10 | 338 | 0.0 | 6.4 | 0.00 | 0.00 | 0.00 | 81 | 1016.8 |
| 20260507135649 | 10 | 0 | 0.0 | 0.0 | 0.00 | 0.00 | 0.00 | 81 | 1016.7 |
| 20260507135149 | 10 | 0 | 0.0 | 4.8 | 0.00 | 0.00 | 0.00 | 81 | 1016.6 |
| 20260507134648 | 10 | 337 | 0.0 | 4.8 | 0.00 | 0.00 | 0.00 | 80 | 1016.6 |
| 20260507134151 | 10 | 23 | 0.0 | 4.8 | 0.00 | 0.00 | 0.00 | 80 | 1016.6 |
| 20260507133649 | 10 | 0 | 0.0 | 6.4 | 0.00 | 0.00 | 0.00 | 80 | 1016.6 |
| 20260507133148 | 11 | 345 | 0.0 | 6.4 | 0.00 | 0.00 | 0.00 | 80 | 1016.6 |
| 20260507132651 | 11 | 327 | 0.0 | 6.4 | 0.00 | 0.00 | 0.00 | 80 | 1016.5 |
| 20260507132149 | 11 | 12 | 1.6 | 6.4 | 0.00 | 0.00 | 0.00 | 80 | 1016.5 |
| 20260507131649 | 11 | 26 | 0.0 | 6.4 | 0.00 | 0.00 | 0.00 | 79 | 1016.5 |
| 20260507131151 | 11 | 309 | 0.0 | 6.4 | 0.00 | 0.00 | 0.00 | 79 | 1016.5 |
| 20260507130649 | 11 | 345 | 0.0 | 3.2 | 0.00 | 0.00 | 0.00 | 79 | 1016.5 |
| 20260507130150 | 11 | 320 | 0.0 | 3.2 | 0.00 | 0.00 | 0.00 | 79 | 1016.6 |
| 20260507125648 | 11 | 306 | 0.0 | 3.2 | 0.00 | 0.00 | 0.00 | 79 | 1016.6 |
| 20260507124647 | 11 | 19 | 0.0 | 9.7 | 0.00 | 0.00 | 0.00 | 79 | 1016.6 |
| 20260507124148 | 11 | 344 | 0.0 | 9.7 | 0.00 | 0.00 | 0.00 | 79 | 1016.6 |
| 20260507123648 | 11 | 357 | 1.6 | 9.7 | 0.00 | 0.00 | 0.00 | 79 | 1016.6 |
| 20260507123148 | 11 | 317 | 4.8 | 9.7 | 0.00 | 0.00 | 0.00 | 79 | 1016.7 |
| 20260507122653 | 11 | 5 | 1.6 | 8.0 | 0.00 | 0.00 | 0.00 | 79 | 1016.7 |
| 20260507122151 | 11 | 348 | 3.2 | 14.5 | 0.00 | 0.00 | 0.00 | 79 | 1016.7 |
| 20260507121648 | 11 | 355 | 1.6 | 14.5 | 0.00 | 0.00 | 0.00 | 79 | 1016.8 |
| 20260507121151 | 11 | 347 | 3.2 | 14.5 | 0.00 | 0.00 | 0.00 | 80 | 1016.8 |
| 20260507120650 | 11 | 317 | 1.6 | 11.3 | 0.00 | 0.00 | 0.00 | 80 | 1016.9 |
| 20260507115648 | 11 | 345 | 4.8 | 9.7 | 0.00 | 0.00 | 0.00 | 80 | 1016.9 |
| 20260507114648 | 11 | 354 | 4.8 | 9.7 | 0.00 | 0.00 | 0.00 | 80 | 1016.9 |
| 20260507114151 | 11 | 1 | 3.2 | 16.1 | 0.00 | 0.00 | 0.00 | 80 | 1017.0 |